Flag Weather past 2 weeks in Melk, Lower Austria, Austria

Now
35 °F

Chilly.


Feels Like: 30 °F
Forecast: 35 / 41 °F
Wind: 6 mph from East

Location: Amstetten

Current Time: Nov 28, 2014 at 7:31:14 PM

Latest Report: Nov 28, 2014 at 6:00 PM


Visibility: N/A

Pressure: 30.03 "Hg

Humidity: 95%

Dew point: 34 °F

Location of MelkLocation

Historic Weather in Melk — Graph

°F

Melk temperature yesterday

Maximum temperature yesterday: 40 °F (at 1:00 PM)
Minimum temperature yesterday: 35 °F (at 1:00 AM)
Average temperature yesterday: 37 °F

Past Weeks' High & Low Weather Summary

 TemperatureHumidityPressure
High59 °F (Nov 15, 2:00 PM)99% (Nov 14, 12:00 AM)30.36 "Hg (Nov 14, 12:00 AM)
Low35 °F (Nov 27, 1:00 AM)63% (Nov 16, 1:00 PM)29.50 "Hg (Nov 16, 4:00 AM)
Average44 °F87%30.04 "Hg
* Reported Nov 13 6:00 PM — Nov 28 6:00 PM, Melk, Weather by CustomWeather, © 2014

Note: Actual official high and low records may vary slightly from our data, if they occured in-between our weather recording intervals... More about our weather records

Advertising

Melk weather history for previous 24 hours

 ConditionsComfort  
Time TempWeatherWind HumidityBarometerVisibility
6:00 PM
Nov 28
35 °FChilly.6 mph95%30.03 "HgN/A
5:00 PM35 °FChilly.6 mph94%30.03 "HgN/A
4:00 PM35 °FChilly.6 mph94%30.02 "HgN/A
3:00 PM35 °FChilly.6 mph92%30.01 "HgN/A
2:00 PM36 °FChilly.6 mph91%30.01 "HgN/A
1:00 PM36 °FChilly.6 mph90%30.01 "HgN/A
12:00 PM36 °FChilly.6 mph88%30.02 "HgN/A
11:00 AM36 °FChilly.6 mph89%30.02 "HgN/A
10:00 AM36 °FChilly.6 mph91%30.03 "HgN/A
9:00 AM35 °FChilly.5 mph91%30.03 "HgN/A
8:00 AM35 °FChilly.5 mph93%30.02 "HgN/A
7:00 AM35 °FOvercast.6 mph95%30.01 "HgN/A
6:00 AM35 °FChilly.5 mph94%30.00 "HgN/A
5:00 AM35 °FChilly.5 mph92%30.00 "HgN/A
4:00 AM35 °FChilly.6 mph91%29.99 "HgN/A
3:00 AM35 °FChilly.6 mph90%29.99 "HgN/A
2:00 AMN/APassing clouds.10 mphN/AN/A1 mi
1:00 AM35 °FChilly.5 mph87%29.98 "HgN/A
12:00 AM36 °FChilly.6 mph85%29.98 "HgN/A
11:00 PM
Nov 27
36 °FChilly.6 mph84%29.98 "HgN/A
10:00 PM36 °FChilly.5 mph83%29.97 "HgN/A
9:00 PM36 °FChilly.6 mph83%29.96 "HgN/A
8:00 PM36 °FChilly.6 mph83%29.96 "HgN/A
7:00 PM35 °FChilly.6 mph82%29.96 "HgN/A
Weather by CustomWeather, © 2014

See weather overviewHow to use our weather pages